GFSNE_sfc_30mbdewp_126.txt.gz
Dewpoint
62 61 61 61 62 61 60 58 56 53 53 56 57 59 59 60 61 60 59 58 55 54 54 54 56 57 57 58 58 58 57 57 56 56 56 56 56 57
62 62 62 62 62 61 60 60 59 57 54 56 56 55 59 59 60 60 60 59 56 54 52 52 53 55 56 56 56 56 56 56 56 55 55 56 56 57
63 61 61 61 59 57 60 60 60 60 57 57 57 57 58 59 59 59 59 59 59 55 54 52 52 52 53 54 55 55 55 55 55 55 55 55 56 57
62 62 61 60 57 59 60 60 60 59 59 57 57 57 56 58 59 58 59 59 59 58 53 52 52 51 51 52 52 53 53 54 54 54 55 55 56 56
58 60 61 60 58 60 60 60 60 59 59 58 57 57 57 57 57 58 58 58 58 58 55 52 52 51 51 50 50 50 51 51 51 52 52 52 53 53
45 47 48 50 56 60 60 60 60 59 59 58 57 57 56 57 56 55 55 57 53 50 49 52 51 51 50 49 49 49 49 49 49 49 50 50 50 51
37 38 40 40 38 39 44 54 59 58 58 57 56 55 55 54 53 55 54 55 49 47 46 45 46 47 47 48 48 48 48 48 49 49 49 48 49 50
32 33 35 35 35 36 39 40 39 50 56 56 55 54 54 54 54 54 54 49 47 46 45 43 44 42 43 44 44 46 46 46 47 47 47 47 47 48
30 30 31 32 32 34 38 37 34 33 34 40 49 52 53 54 54 53 53 50 50 46 43 39 37 37 38 40 41 41 42 43 44 44 44 43 42 42
29 29 29 29 30 33 36 34 32 32 31 31 31 30 31 32 35 47 53 51 44 44 41 39 34 32 35 38 39 39 39 39 38 38 37 36 36 35
30 29 28 28 29 30 32 32 32 31 32 32 31 31 30 30 31 38 45 46 42 40 37 36 31 30 31 32 36 37 36 36 36 35 35 35 34 33
27 27 27 27 29 29 27 27 27 27 27 28 29 29 30 29 29 29 31 39 40 38 36 35 30 29 27 29 30 32 32 33 33 33 33 32 31 30
27 27 28 27 27 28 28 27 26 27 26 26 25 26 27 27 28 28 29 30 34 33 32 33 30 29 27 24 25 27 30 30 31 31 31 31 30 29
28 28 29 28 27 27 28 28 29 29 27 26 25 25 25 26 27 28 28 28 29 31 32 33 31 27 23 21 20 24 25 26 27 27 28 29 29 29
28 29 28 28 29 27 27 28 28 27 27 25 25 25 27 28 30 29 28 28 27 27 30 31 30 27 26 21 19 21 22 24 26 25 25 26 25 26
26 28 27 26 26 27 26 25 26 27 27 26 25 27 28 26 26 28 26 27 24 24 26 28 28 26 23 23 22 21 23 21 25 25 25 25 26 27
25 24 23 24 23 23 24 24 23 24 25 26 25 25 24 24 25 26 27 25 22 22 23 24 26 26 26 24 22 23 23 24 26 26 26 24 26 28
21 21 21 20 20 19 20 21 22 21 22 24 24 25 24 24 24 24 24 24 23 24 24 25 25 23 22 23 26 23 24 23 24 26 26 23 24 27
17 17 17 18 18 17 18 18 18 19 21 20 21 21 22 23 22 23 23 22 21 21 22 24 26 23 18 16 21 25 22 23 23 23 24 25 24 25
14 15 15 15 15 16 17 18 19 19 19 21 21 20 21 17 16 16 16 17 17 19 20 21 21 23 19 18 16 17 25 23 23 21 22 23 22 22
12 14 13 13 14 14 17 16 18 16 18 20 20 20 20 17 16 16 14 12 13 12 12 14 17 22 20 19 16 15 12 14 17 18 17 16 17 16
12 11 14 12 11 11 11 15 13 15 15 16 17 17 18 18 15 13 11 11 9 9 10 10 11 14 18 15 15 14 13 12 11 10 10 8 12 17
10 11 12 11 9 9 9 10 12 11 10 10 13 16 16 14 15 15 13 9 8 9 9 9 9 11 13 16 15 12 10 12 12 12 11 10 7 8

GFSNE_sfc_30mbdewp_129.txt.gz
Dewpoint
62 61 61 61 61 60 60 59 56 53 53 55 56 59 60 61 61 60 60 59 56 55 54 54 55 56 58 58 58 58 57 57 57 57 56 56 55 56
62 61 61 60 60 61 61 60 59 56 54 55 56 58 59 60 60 60 60 59 57 54 53 53 54 55 56 57 57 57 57 57 57 57 56 56 56 56
62 61 61 61 61 62 60 57 54 55 53 56 58 59 58 58 59 60 60 59 59 55 53 53 52 53 54 55 56 56 56 56 56 56 56 55 56 56
55 60 61 61 61 59 57 56 56 57 57 54 57 57 57 58 58 59 59 59 59 58 56 54 52 51 51 52 53 54 54 55 55 55 55 55 55 55
44 46 45 44 46 47 55 58 59 59 59 58 57 57 58 57 58 58 58 58 59 58 57 55 54 51 50 51 52 52 53 53 53 53 53 53 54 54
38 41 39 38 38 39 43 46 52 58 59 58 57 57 57 57 57 56 56 57 57 57 56 55 54 51 50 49 50 51 52 52 52 52 52 52 52 53
33 35 35 34 35 36 39 39 40 46 55 58 57 57 56 55 55 56 55 55 55 54 53 50 50 50 50 47 49 49 50 50 50 50 50 50 50 50
30 31 31 31 32 34 38 34 34 37 41 43 51 55 55 55 54 54 54 53 50 48 49 48 45 46 45 47 49 50 48 49 48 48 48 48 48 48
29 29 29 30 30 32 36 34 33 33 32 34 36 34 35 33 34 51 53 53 52 49 47 46 39 40 37 40 41 43 45 47 47 47 48 48 47 47
28 28 28 28 29 29 31 32 30 30 31 31 31 30 31 31 32 34 37 40 46 46 44 45 34 35 35 37 39 40 40 42 44 45 45 45 45 44
27 27 27 27 28 29 27 27 27 27 29 30 31 31 30 31 31 33 37 39 42 41 40 42 33 31 31 32 36 37 37 37 37 38 38 37 36 35
27 28 28 26 27 27 27 27 25 25 26 27 27 28 28 28 28 28 28 31 34 38 35 37 31 31 31 29 30 32 34 35 35 35 35 34 34 32
27 28 29 28 27 27 27 27 27 28 26 26 26 26 27 28 28 28 28 27 28 33 32 33 31 30 28 25 25 28 31 31 32 32 32 32 32 30
27 28 28 28 27 25 26 27 27 26 25 24 24 25 25 26 28 29 28 28 28 27 29 32 32 30 25 22 22 25 26 28 29 28 29 30 30 29
27 25 26 27 27 27 24 24 25 25 25 23 23 24 25 26 26 28 27 28 27 27 27 28 30 29 28 24 21 22 23 24 26 26 26 26 27 27
25 23 22 23 21 22 24 22 22 23 24 24 24 23 23 24 24 26 24 25 23 23 26 27 27 27 23 24 23 22 23 22 25 25 25 25 26 28
22 20 19 19 19 18 18 19 19 21 22 22 22 23 23 23 23 24 24 23 23 22 23 25 26 26 26 24 21 23 23 23 24 24 25 24 26 27
16 15 14 15 17 16 16 18 17 18 20 21 20 21 21 22 22 22 22 21 21 22 22 25 25 23 23 23 26 23 23 23 25 26 26 23 24 27
15 14 12 13 14 15 16 16 18 19 20 20 20 19 20 17 17 18 20 20 20 21 21 21 23 20 17 15 21 25 22 24 24 24 25 24 23 25
12 13 12 12 12 12 13 14 15 15 16 18 18 18 19 17 15 15 15 15 17 16 19 20 22 20 18 17 14 17 25 23 22 22 22 22 25 27
11 11 12 11 9 10 10 11 13 12 11 12 14 15 17 18 13 11 10 11 11 12 14 16 21 22 19 18 14 14 16 21 23 21 22 20 19 20
7 9 10 10 8 9 9 8 9 9 8 8 9 10 14 16 14 13 10 9 11 10 10 11 14 19 17 15 14 12 11 13 14 13 10 12 18 17
6 7 8 8 6 7 7 4 4 3 3 5 6 8 10 13 15 13 12 10 10 11 13 10 14 17 15 14 13 12 9 10 11 10 10 10 7 9

GFSNE_sfc_30mbdewp_132.txt.gz
Dewpoint
60 60 60 61 60 59 58 57 56 53 53 55 55 58 60 60 61 60 60 60 56 56 55 55 56 57 58 58 59 58 58 57 57 57 56 55 56 56
61 61 61 61 61 60 60 59 58 57 54 55 55 58 59 60 60 60 60 59 57 55 55 54 55 55 55 57 58 58 58 57 57 57 56 56 56 56
61 61 60 61 60 60 61 60 59 56 51 51 54 56 58 59 59 60 60 60 59 56 54 53 53 53 53 54 55 57 57 57 57 56 56 56 56 56
49 50 48 53 58 56 60 59 58 57 54 52 53 56 58 59 59 59 59 60 60 59 56 54 52 51 51 52 53 54 55 55 55 56 55 55 56 56
41 40 40 42 42 43 47 50 53 57 56 55 54 56 57 58 58 58 58 59 60 59 57 55 53 51 50 50 51 52 53 54 54 54 54 54 54 55
37 35 35 36 36 38 42 42 44 47 51 57 57 57 57 57 57 57 56 58 58 58 58 57 55 53 51 50 50 50 50 51 52 53 53 52 52 53
33 33 33 34 35 37 37 36 38 41 44 48 52 56 56 56 55 56 56 56 57 58 56 55 54 53 54 49 49 48 48 49 50 51 51 51 51 51
30 31 31 31 32 35 34 33 33 33 36 38 42 41 42 38 38 40 53 55 52 52 54 54 49 51 50 49 48 47 47 47 48 49 50 50 50 50
28 29 29 29 30 30 33 31 31 32 31 32 32 31 32 31 32 35 40 42 51 49 51 51 44 46 41 41 41 43 44 45 46 47 47 48 49 49
28 27 27 28 29 29 28 27 27 28 30 31 30 30 30 31 30 31 33 35 39 44 46 47 39 42 35 37 39 40 40 41 43 44 45 46 47 48
28 29 27 27 28 28 27 27 26 26 28 28 29 29 29 29 29 30 29 31 36 40 37 39 35 34 32 33 35 37 37 38 40 41 42 44 44 43
27 29 29 26 27 27 27 26 25 25 24 24 25 26 28 29 29 28 27 27 29 35 31 32 33 33 35 29 30 32 34 36 36 37 38 40 39 34
25 26 28 27 24 24 26 26 26 25 23 23 24 25 25 26 28 29 28 26 25 28 29 29 32 32 30 27 26 27 31 31 32 32 33 34 35 33
24 25 25 24 25 24 23 23 24 24 23 23 23 23 24 24 25 26 26 27 27 25 26 28 30 31 27 24 25 26 26 28 29 29 30 31 31 31
23 21 21 20 20 20 20 20 20 21 22 22 22 22 22 22 22 25 24 25 25 25 26 26 27 28 28 25 22 23 24 25 27 27 27 27 27 28
18 16 17 18 16 16 17 18 18 18 19 19 19 20 20 21 21 22 22 22 21 21 24 25 26 26 24 24 24 23 24 22 25 25 25 26 27 28
14 13 12 13 14 14 14 15 16 17 18 19 18 18 18 19 20 21 21 20 20 21 22 23 25 25 25 24 22 23 23 23 24 24 24 24 26 27
12 10 9 10 11 12 12 13 14 15 16 18 18 18 18 18 17 18 20 20 20 20 20 21 23 23 21 22 25 23 23 23 25 25 25 23 23 26
10 10 9 8 10 10 10 11 11 13 14 14 15 16 17 17 15 15 16 18 18 18 19 21 21 18 16 15 19 24 23 24 24 24 25 24 22 24
9 9 10 8 8 8 8 8 9 9 8 9 10 11 13 15 14 12 11 13 15 14 18 20 20 19 17 15 14 16 26 23 22 21 21 24 25 26
6 7 9 8 6 7 5 4 7 5 5 6 7 8 8 12 13 13 10 9 11 11 12 16 20 18 18 17 14 14 18 25 24 21 22 21 20 21
5 6 8 7 3 6 5 1 1 -1 -0 1 3 5 6 9 12 13 10 9 11 12 13 13 16 19 18 16 13 13 14 17 16 15 14 18 19 17
5 6 4 2 2 5 2 -1 -3 -6 -4 -2 -0 2 3 6 10 11 8 7 8 9 11 12 16 16 15 15 14 13 10 12 12 10 13 11 13 20

GFSNE_sfc_30mbdewp_135.txt.gz
Dewpoint
61 61 61 61 60 59 58 57 55 53 53 54 55 57 59 60 60 60 60 60 57 56 56 56 56 57 58 59 59 58 58 58 58 57 57 56 56 55
61 61 61 61 61 61 60 58 58 56 54 55 55 56 58 59 60 60 60 59 58 56 55 54 55 55 56 57 58 58 58 58 57 57 57 57 56 56
60 60 59 60 60 60 60 59 58 58 56 56 55 56 57 58 59 60 60 60 60 57 55 54 53 53 54 55 55 56 57 57 57 57 57 57 56 56
47 51 49 53 58 57 60 59 59 58 57 55 53 54 54 56 57 59 59 60 60 60 56 54 53 52 52 53 53 54 55 55 56 56 56 56 56 56
37 38 39 41 42 44 48 51 53 57 57 56 54 56 55 57 57 58 58 58 59 59 58 56 53 52 51 51 51 51 52 52 53 54 54 55 55 55
33 33 35 37 37 40 40 40 43 47 51 53 55 55 56 56 57 56 56 57 57 58 58 58 54 51 51 51 50 51 50 50 50 51 51 52 53 54
32 32 32 34 35 34 34 33 35 39 43 46 48 51 50 50 47 43 52 56 57 58 57 57 55 53 52 49 50 48 49 48 48 49 49 50 50 51
30 31 32 32 32 32 32 32 32 31 33 36 38 37 37 35 35 35 38 45 50 48 54 56 54 54 54 54 52 51 49 48 47 47 47 48 48 48
28 29 29 30 31 31 29 29 29 30 30 31 31 29 30 30 30 32 36 37 40 43 42 47 46 51 49 46 45 43 43 44 45 45 45 45 46 47
28 26 27 28 29 29 29 27 26 27 29 30 29 29 29 30 30 30 31 32 35 38 39 42 39 43 36 37 39 39 40 40 40 41 42 43 44 44
28 28 25 26 27 27 27 26 25 24 25 26 28 28 28 30 29 28 27 29 33 36 30 32 35 35 34 33 33 35 36 37 38 38 39 41 41 42
26 26 27 25 24 25 25 25 23 23 23 23 24 26 26 26 28 28 26 25 27 31 27 28 32 33 36 29 29 30 32 33 34 34 35 37 40 40
22 22 22 21 22 21 22 23 23 24 24 24 24 24 24 24 25 26 27 25 24 25 27 26 29 31 31 30 27 28 30 30 30 31 32 34 34 33
19 20 20 18 18 19 20 20 20 21 22 21 21 21 21 21 21 23 23 25 26 25 26 25 26 30 29 28 28 26 26 28 29 29 29 30 31 32
16 15 15 15 15 15 17 17 17 17 18 17 17 17 17 19 19 21 22 21 22 22 22 25 24 25 27 27 25 24 25 25 27 27 27 27 27 28
12 11 11 12 12 12 13 14 15 15 16 15 15 16 16 17 16 18 20 20 20 20 21 23 24 24 23 24 24 23 24 23 25 25 26 27 27 27
9 7 6 7 8 8 9 10 12 12 12 14 15 15 16 17 16 16 17 19 19 19 19 20 23 23 24 23 21 22 22 22 24 24 24 24 26 26
6 7 5 5 7 7 7 7 9 9 9 11 12 13 14 15 16 15 15 16 17 17 18 19 20 21 21 20 23 22 22 22 24 25 25 22 23 26
4 6 6 4 6 6 6 6 6 7 7 6 9 9 10 11 14 14 12 12 14 15 16 20 20 19 16 15 18 22 22 24 24 23 24 23 22 24
6 5 7 5 4 5 5 3 3 1 1 2 4 5 7 8 11 12 11 10 11 12 15 18 19 18 16 16 15 18 26 23 22 21 22 23 25 26
5 5 6 5 2 3 3 -0 -2 -4 -4 -3 -0 2 3 5 7 11 10 8 10 12 11 11 17 20 20 19 15 15 17 24 24 22 22 20 20 21
4 4 5 5 1 2 2 -2 -3 -6 -5 -5 -4 -2 1 3 6 9 9 7 8 9 10 13 17 19 20 18 14 13 15 17 20 21 22 22 20 17
6 5 4 3 0 1 2 -2 -6 -8 -6 -6 -5 -3 -1 1 5 7 8 7 7 7 10 11 14 16 15 16 15 13 14 15 16 15 16 21 24 25

GFSNE_sfc_30mbdewp_141.txt.gz
Dewpoint
55 55 57 60 60 59 57 55 53 52 54 57 57 60 61 61 61 61 61 59 56 56 56 56 57 58 59 60 60 60 60 59 59 59 58 58 58 58
56 55 55 59 59 60 59 57 56 53 52 56 57 59 61 61 61 61 61 60 57 55 54 54 54 56 57 58 59 59 59 59 59 58 58 58 58 58
54 55 55 54 52 59 60 58 56 56 53 56 58 59 59 60 60 61 61 61 60 56 54 54 53 53 54 55 56 57 58 58 58 58 58 58 58 58
41 43 44 47 47 46 51 59 57 56 54 55 57 57 58 59 59 59 60 60 60 58 55 54 53 52 52 53 53 54 55 56 57 57 56 57 57 57
36 36 37 39 40 41 40 44 46 53 58 55 56 57 57 58 58 58 58 58 58 59 56 54 52 51 51 51 50 51 52 53 54 54 55 55 56 56
34 34 34 35 35 36 35 37 40 44 48 52 56 55 53 50 49 48 55 54 57 58 58 57 55 53 52 51 50 49 50 50 51 51 52 53 53 54
29 31 33 33 32 32 32 32 35 36 39 41 40 41 37 36 36 37 41 42 46 42 46 53 54 55 54 51 50 49 48 49 49 49 49 50 50 50
25 27 29 30 30 30 30 30 30 31 32 33 33 32 31 31 33 35 37 38 43 39 38 42 48 50 47 43 41 42 44 45 46 46 47 47 47 47
24 25 25 27 28 28 28 27 28 29 29 29 27 27 28 28 30 31 33 34 35 34 34 39 40 44 42 40 38 38 39 39 40 41 41 42 43 43
23 23 23 24 26 26 26 26 26 27 28 28 27 27 27 28 29 29 30 31 34 32 31 34 37 37 39 38 36 36 37 37 38 38 38 38 39 39
20 21 21 22 22 22 22 23 23 24 27 26 26 26 26 26 27 28 27 28 31 30 26 28 33 33 36 36 35 33 34 34 35 35 35 36 36 36
17 18 17 19 19 19 19 19 19 20 21 22 22 22 23 24 24 26 26 25 27 29 26 27 29 31 31 35 36 36 35 34 33 33 33 34 34 36
14 14 15 14 15 16 16 17 17 18 19 19 20 20 21 20 21 23 25 26 25 26 27 25 27 28 29 30 32 35 34 34 33 34 33 32 31 32
11 12 11 10 10 11 13 12 12 15 16 15 15 16 17 18 20 20 22 24 26 27 27 26 25 25 24 24 27 31 30 32 31 31 32 31 31 30
9 8 8 7 6 8 8 8 9 10 11 11 12 14 16 18 19 19 19 21 24 26 26 26 25 25 24 24 25 25 26 28 29 29 30 30 30 30
7 5 5 5 5 6 6 7 7 6 7 8 10 11 13 14 16 17 17 17 19 20 22 24 24 25 24 24 24 24 25 24 27 27 28 28 29 29
6 5 5 5 5 4 4 4 3 3 2 3 6 8 9 11 12 14 15 15 15 15 15 17 22 24 25 24 23 24 24 24 25 26 27 26 27 28
5 4 4 4 3 2 1 1 1 -0 -0 -1 1 2 5 7 9 10 12 12 12 11 12 13 15 17 17 23 23 22 22 23 24 25 26 24 24 26
6 5 5 4 2 1 -0 -1 -1 -1 -1 -2 -2 -2 3 5 7 8 9 10 10 9 9 10 12 14 14 14 20 22 20 22 23 23 24 24 24 24
6 5 5 4 2 1 -0 -0 -0 -0 -1 -2 -1 -1 1 3 5 6 7 8 8 8 7 7 9 12 14 15 16 17 21 21 24 23 22 24 25 27
7 6 6 5 4 3 4 3 3 1 1 0 -0 -1 0 2 3 4 6 6 7 7 6 5 6 11 14 18 18 18 19 21 23 24 24 24 23 22
8 8 8 8 7 6 5 5 3 2 1 -0 -1 -1 -0 1 2 3 4 5 5 6 5 4 4 9 13 14 14 16 16 19 21 23 24 24 24 21
6 6 8 9 9 7 5 5 4 4 2 1 -0 -1 -1 -0 1 2 3 4 4 5 5 4 4 8 12 13 14 14 15 17 17 18 19 24 26 26

GFSNE_sfc_30mbdewp_144.txt.gz
Dewpoint
55 57 57 56 58 59 58 58 55 53 55 57 57 61 61 60 59 60 60 58 56 55 56 56 58 59 60 60 61 61 60 60 59 59 59 58 58 58
55 56 57 57 58 58 60 59 58 56 54 56 58 59 61 59 60 61 61 60 56 55 55 55 56 57 58 59 59 59 60 59 59 59 59 58 58 58
44 47 55 56 55 57 57 57 58 56 56 55 57 59 60 61 60 62 61 61 60 54 54 54 54 54 55 56 57 58 58 58 58 58 58 58 58 58
35 37 38 45 50 52 52 57 57 58 57 56 57 59 59 61 61 61 60 60 61 57 56 53 52 52 52 53 54 55 55 56 57 57 57 57 57 58
32 32 32 33 38 40 46 47 51 55 55 57 57 58 59 58 60 60 60 60 60 56 55 54 53 52 51 51 51 52 53 53 53 54 54 55 56 56
28 29 30 30 30 34 36 40 42 48 51 52 52 49 47 46 46 49 55 50 49 48 53 56 54 52 51 50 50 50 50 51 51 51 51 52 53 54
26 26 28 29 30 31 30 31 36 39 40 42 39 37 36 37 37 40 43 45 41 39 44 47 50 54 51 46 47 47 47 47 48 48 48 49 49 50
24 25 25 27 29 29 29 29 29 30 31 32 32 31 30 31 34 35 37 40 45 36 37 42 44 44 42 39 39 40 42 43 44 45 45 46 46 46
24 24 24 25 27 29 27 27 27 27 27 27 25 25 26 28 31 32 32 35 35 31 35 40 38 40 40 37 38 38 38 39 39 40 40 41 41 42
22 22 22 22 24 26 26 26 25 26 27 27 26 26 27 28 29 30 30 32 34 30 30 33 35 35 37 38 36 36 36 36 36 36 36 36 37 37
17 20 19 19 19 19 19 20 22 23 26 25 25 25 25 26 28 30 29 31 31 29 27 29 32 31 34 36 36 36 36 34 34 34 34 34 35 35
15 16 15 17 16 17 16 16 17 20 21 22 23 25 25 25 25 28 27 27 28 31 28 28 29 30 30 35 36 37 37 36 36 34 34 33 33 34
12 12 13 12 13 13 13 15 15 17 18 19 19 20 22 23 24 25 26 26 26 28 28 28 28 28 29 30 31 35 34 34 34 34 34 33 32 32
11 12 11 10 10 10 11 11 11 13 14 15 15 16 17 18 21 24 25 25 27 28 28 28 27 27 26 26 27 30 31 32 33 32 32 33 33 32
10 10 10 9 10 10 9 8 10 11 11 11 12 14 16 17 18 20 22 24 26 29 28 26 24 25 26 25 26 27 27 29 31 30 30 29 30 31
10 10 9 9 8 9 9 9 9 8 8 9 10 11 13 14 14 16 16 17 18 19 27 27 26 24 23 24 26 25 27 26 28 29 29 29 31 30
10 9 9 8 8 7 7 7 7 6 6 6 6 6 7 9 10 12 13 13 14 14 14 16 22 25 24 26 23 23 24 24 27 28 27 27 29 30
9 9 8 7 6 4 4 4 4 3 3 3 4 3 4 4 6 7 8 10 10 10 10 11 12 13 14 21 26 22 21 22 23 26 27 26 25 31
8 8 8 8 5 3 2 2 2 3 2 2 3 3 3 3 4 5 5 7 7 6 6 6 7 9 11 12 17 22 20 19 19 24 26 25 26 28
6 6 7 6 5 3 4 3 4 3 3 2 2 3 4 3 3 3 3 5 5 4 4 4 4 6 8 11 13 16 19 20 19 20 23 26 25 24
5 4 5 6 7 6 7 8 6 5 4 3 3 2 3 3 2 2 3 3 4 3 3 3 3 5 5 9 14 16 23 22 20 19 21 22 22 24
5 4 4 6 7 10 9 9 6 4 3 2 2 2 2 2 2 1 2 2 2 2 2 2 3 3 4 6 10 12 13 21 20 22 22 23 22 21
4 3 4 5 5 6 7 10 8 7 5 3 2 1 1 1 0 1 1 1 1 1 1 1 2 2 2 4 9 12 12 16 16 17 22 22 25 26

GFSNE_sfc_30mbdewp_147.txt.gz
Dewpoint
49 52 53 56 57 56 56 55 50 47 49 51 59 62 62 61 60 59 59 56 56 56 57 58 59 60 61 61 61 61 61 60 59 59 59 59 59 58
42 45 49 53 57 57 58 56 57 54 50 53 58 60 62 61 61 60 60 57 55 55 55 55 57 58 59 59 60 60 60 60 59 59 59 58 58 59
35 36 37 41 43 49 56 57 56 55 53 54 58 59 61 61 61 61 61 61 57 54 54 55 54 55 56 57 58 59 59 59 59 59 58 58 58 59
31 32 32 34 35 38 40 44 54 56 56 54 57 57 59 62 61 61 60 61 62 55 53 53 52 53 54 54 55 56 57 57 58 58 58 58 58 58
30 30 30 31 31 33 34 35 40 47 56 54 54 57 54 51 52 61 61 61 61 56 51 51 51 51 51 52 52 52 53 53 54 55 55 56 56 57
28 29 30 29 29 30 30 31 35 41 46 54 51 46 44 44 43 46 49 45 44 47 51 53 52 50 49 48 48 48 49 50 51 52 53 53 53 54
25 26 28 30 29 29 28 27 29 31 36 37 36 35 35 35 36 37 45 47 39 37 45 45 48 45 42 41 41 41 42 45 46 47 48 48 48 49
23 24 24 27 29 28 27 27 27 26 26 26 27 26 25 29 33 35 35 41 42 35 38 40 43 41 39 38 38 39 39 39 40 41 42 44 45 45
21 22 22 23 26 29 27 27 27 27 26 25 23 24 24 27 30 31 32 34 32 30 34 37 36 36 39 37 37 37 36 37 37 37 37 37 37 38
19 20 19 19 22 24 24 24 25 27 28 27 26 26 27 28 29 30 31 32 32 30 30 32 32 33 37 36 36 36 35 36 35 35 35 35 35 35
16 18 18 18 18 19 18 19 22 24 26 26 27 26 26 25 27 27 27 30 30 28 27 29 30 31 33 35 37 37 36 36 36 35 35 35 34 34
17 17 15 16 15 16 16 17 17 21 22 22 23 23 25 25 25 26 26 26 28 28 27 28 29 30 29 32 33 36 35 35 35 35 35 35 34 33
15 15 15 13 14 14 15 16 16 18 20 20 20 20 21 22 23 25 26 27 25 26 26 27 28 28 29 29 31 35 33 33 35 34 34 34 34 34
13 15 15 12 12 12 13 13 14 16 16 16 16 17 18 20 21 23 24 26 29 27 28 26 24 25 25 25 28 29 31 32 33 33 32 32 32 33
14 13 12 11 11 13 11 11 13 13 14 13 14 14 16 18 19 20 21 22 26 29 29 27 25 23 23 23 24 25 27 28 32 30 31 31 30 32
14 14 13 12 11 12 13 13 13 12 12 12 12 13 14 14 14 17 17 18 18 19 25 30 29 27 22 23 24 24 26 26 28 29 30 29 31 33
16 14 13 12 10 10 10 11 11 10 9 10 10 9 9 10 10 13 13 14 13 13 14 16 19 20 23 24 23 24 25 25 26 26 26 27 28 30
12 13 12 12 9 7 7 7 7 6 6 6 7 7 6 6 6 7 8 9 9 8 8 10 12 12 13 16 27 25 22 22 22 22 23 26 27 29
9 10 12 11 8 6 6 4 6 5 5 4 4 5 4 3 5 4 4 5 5 4 3 4 5 7 7 10 12 18 17 18 19 20 20 23 27 27
6 6 7 7 9 7 7 8 9 8 6 4 5 4 5 3 3 2 2 5 3 2 2 1 2 4 6 8 10 13 17 19 23 21 17 20 23 25
5 4 5 5 7 7 15 14 12 9 8 6 6 5 5 3 2 1 2 4 3 1 0 0 1 5 5 7 10 13 14 23 24 22 17 17 18 21
5 4 4 4 6 8 8 10 11 11 7 6 5 4 3 2 1 1 2 2 0 -0 -1 -1 0 1 2 2 4 8 10 15 22 24 22 21 19 17
4 4 3 3 3 3 3 9 8 9 12 10 6 2 3 1 0 0 0 0 -1 -1 -1 -0 -1 -0 1 2 6 7 9 16 15 15 22 22 24 26